Weather History for Chicopee, MA

Change the Weather History Date:

Saturday, September 14, 2013

  Actual Average Record
Temperature  
Mean Temperature 58 °F -  
Max Temperature 67 °F 72 °F 87 °F (2005)
Min Temperature 48 °F 51 °F 43 °F (2014)
Degree Days  
Heating Degree Days 6    
Growing Degree Days 8 (Base 50)    
Moisture  
Dew Point 50 °F    
Average Humidity 76    
Maximum Humidity 98    
Minimum Humidity 55    
Precipitation  
Precipitation 0.00 in - - ()
Sea Level Pressure  
Sea Level Pressure 29.96 in    
Wind  
Wind Speed 7 mph (NNW)    
Max Wind Speed 14 mph    
Max Gust Speed -    
Visibility 10 miles    
Events      
Averages and records for this station are not official NWS values.
T = Trace of Precipitation, MM = Missing Value Source: NWS Daily Summary

Daily Weather History Graph

Daily Weather History Graph

Search for Another Location

Airport:

Trip Planner

Search our weather history database for the weather conditions in past years. The results will help you decide how hot, cold, wet, or windy it might be!

Date:

Astronomy

Sep. 14, 2013 Rise Set
Actual Time 6:29 AM EDT 7:01 PM EDT
Civil Twilight 6:01 AM EDT 7:29 PM EDT
Nautical Twilight 5:27 AM EDT 8:02 PM EDT
Astronomical Twilight 4:53 AM EDT 8:36 PM EDT
Moon 3:44 PM EDT (9/14) 12:53 AM EDT (9/14)
Length of Visible Light 13h 28m
Length of Day
12h 31m
Waxing Gibbous, 72% of the Moon is Illuminated
Sep 14
Waxing Gibbous
Sep 19
Full
Sep 26
Last Quarter
Oct 4
New
Oct 11
First Quarter

Hourly Weather History & Observations

Time (EDT) Temp. Dew Point Humidity Pressure Visibility Wind Dir Wind Speed Gust Speed Precip Events Conditions
12:58 AM 57.9 °F 53.2 °F 84% 29.83 in 10.0 mi North 5.8 mph - N/A   Overcast
1:58 AM 56.8 °F 53.6 °F 89% 29.85 in 10.0 mi NNW 5.8 mph - N/A   Overcast
2:58 AM 54.9 °F 52.0 °F 90% 29.85 in 10.0 mi NNW 4.6 mph - N/A   Scattered Clouds
3:58 AM 52.3 °F 50.9 °F 95% 29.86 in 10.0 mi NNW 8.1 mph - N/A   Clear
4:58 AM 52.3 °F 50.4 °F 93% 29.87 in 10.0 mi NNW 5.8 mph - N/A   Clear
5:58 AM 52.2 °F 50.2 °F 93% 29.88 in 10.0 mi NNW 5.8 mph - N/A   Clear
6:58 AM 50.7 °F 49.5 °F 95% 29.90 in 10.0 mi NNW 1.2 mph - N/A   Clear
7:58 AM 55.2 °F 51.4 °F 87% 29.93 in 10.0 mi NW 4.6 mph - N/A   Clear
8:58 AM 57.6 °F 50.7 °F 78% 29.95 in 10.0 mi WNW 8.1 mph - N/A   Partly Cloudy
9:56 AM 60.8 °F 50.0 °F 68% 29.93 in 10.0 mi North 9.2 mph - N/A   Mostly Cloudy
9:58 AM 60.1 °F 50.4 °F 70% 29.96 in 10.0 mi North 11.5 mph - N/A   Mostly Cloudy
10:58 AM 61.5 °F 49.5 °F 65% 29.96 in 10.0 mi WNW 12.7 mph - N/A   Overcast
11:10 AM 62.6 °F 50.0 °F 63% 29.95 in 10.0 mi NW 11.5 mph - N/A   Overcast
11:58 AM 62.4 °F 49.3 °F 62% 29.97 in 10.0 mi NW 6.9 mph - N/A   Overcast
12:58 PM 64.6 °F 49.8 °F 59% 29.96 in 10.0 mi NNW 5.8 mph - N/A   Overcast
1:58 PM 64.8 °F 48.7 °F 56% 29.96 in 10.0 mi NNW 9.2 mph - N/A   Scattered Clouds
2:58 PM 66.2 °F 50.7 °F 57% 29.96 in 10.0 mi NNW 8.1 mph - N/A   Mostly Cloudy
3:58 PM 67.5 °F 50.9 °F 55% 29.97 in 10.0 mi WNW 13.8 mph - N/A   Overcast
4:58 PM 65.1 °F 50.7 °F 60% 29.99 in 10.0 mi West 11.5 mph - N/A   Overcast
5:58 PM 62.6 °F 50.4 °F 64% 30.02 in 10.0 mi WNW 8.1 mph - N/A   Overcast
6:58 PM 60.3 °F 49.3 °F 67% 30.04 in 10.0 mi WNW 9.2 mph - N/A   Mostly Cloudy
7:58 PM 59.0 °F 49.6 °F 71% 30.06 in 10.0 mi NNW 4.6 mph - N/A   Overcast
8:58 PM 56.1 °F 50.5 °F 82% 30.07 in 10.0 mi NNE 3.5 mph - N/A   Scattered Clouds
9:58 PM 53.6 °F 50.7 °F 90% 30.08 in 10.0 mi NNE 2.3 mph - N/A   Clear
10:58 PM 53.8 °F 48.6 °F 82% 30.09 in 10.0 mi NW 3.5 mph - N/A   Clear
11:58 PM 48.4 °F 47.8 °F 98% 30.10 in 10.0 mi Calm Calm - N/A   Clear